Weather History for Inverness, FL

Change the Weather History Date:

Monday, March 18, 2013

  Actual Average (KOCF) Record (KOCF)
Temperature  
Mean Temperature 68 °F -  
Max Temperature 78 °F 74 °F 87 °F (2002)
Min Temperature 57 °F 51 °F 37 °F (2007)
Cooling Degree Days 2    
Growing Degree Days 18 (Base 50)    
Moisture  
Dew Point 61 °F    
Average Humidity 82    
Maximum Humidity 100    
Minimum Humidity 54    
Precipitation  
Precipitation 0.00 in - - ()
Sea Level Pressure  
Sea Level Pressure 30.00 in    
Wind  
Wind Speed 2 mph (SSW)    
Max Wind Speed 13 mph    
Max Gust Speed 17 mph    
Visibility 8 miles    
Events Rain    
Averages and records for this station are not official NWS values.
T = Trace of Precipitation, MM = Missing Value Source: NWS Daily Summary

Daily Weather History Graph

Daily Weather History Graph

Search for Another Location

Airport:

Trip Planner

Search our weather history database for the weather conditions in past years. The results will help you decide how hot, cold, wet, or windy it might be!

Date:

Astronomy

Mar. 18, 2013 Rise Set
Actual Time 7:35 AM EDT 7:39 PM EDT
Civil Twilight 7:11 AM EDT 8:03 PM EDT
Nautical Twilight 6:44 AM EDT 8:30 PM EDT
Astronomical Twilight 6:16 AM EDT 8:58 PM EDT
Moon 12:00 PM EDT (3/18) 1:11 AM EDT (3/18)
Length of Visible Light 12h 51m
Length of Day
12h 04m
Waxing Crescent, 40% of the Moon is Illuminated
Mar 18
Waxing Crescent
Mar 19
First Quarter
Mar 27
Full
Apr 3
Last Quarter
Apr 10
New

Hourly Weather History & Observations

Time (EDT) Temp. Dew Point Humidity Pressure Visibility Wind Dir Wind Speed Gust Speed Precip Events Conditions
12:15 AM 60.8 °F 60.8 °F 100% 30.06 in 7.0 mi Calm Calm - N/A   Light Drizzle
12:35 AM 60.8 °F 60.8 °F 100% 30.06 in 7.0 mi Calm Calm - N/A   Scattered Clouds
12:55 AM 60.8 °F 60.8 °F 100% 30.05 in 5.0 mi Calm Calm - N/A   Mostly Cloudy
1:15 AM 60.8 °F 60.8 °F 100% 30.04 in 4.0 mi Calm Calm - N/A   Scattered Clouds
1:35 AM 60.8 °F 60.8 °F 100% 30.04 in 4.0 mi Calm Calm - N/A   Mostly Cloudy
1:55 AM 60.8 °F 60.8 °F 100% 30.04 in 3.0 mi Calm Calm - N/A Rain Light Rain
2:15 AM 60.8 °F 60.8 °F 100% 30.04 in 4.0 mi Calm Calm - N/A   Overcast
2:35 AM 60.8 °F 59.0 °F 94% 30.05 in 4.0 mi Calm Calm - N/A   Overcast
2:55 AM 59.0 °F 59.0 °F 100% 30.04 in 5.0 mi Calm Calm - N/A   Scattered Clouds
3:15 AM 59.0 °F 59.0 °F 100% 30.02 in 3.0 mi Calm Calm - N/A   Scattered Clouds
3:35 AM 59.0 °F 59.0 °F 100% 30.03 in 3.0 mi Calm Calm - N/A   Mostly Cloudy
3:55 AM 59.0 °F 59.0 °F 100% 30.03 in 3.0 mi Calm Calm - N/A   Mostly Cloudy
4:15 AM 59.0 °F 59.0 °F 100% 30.02 in 2.0 mi Calm Calm - N/A   Mostly Cloudy
4:35 AM 59.0 °F 59.0 °F 100% 30.02 in 1.5 mi Calm Calm - N/A   Mostly Cloudy
4:55 AM 57.2 °F 57.2 °F 100% 30.01 in 0.8 mi Calm Calm - N/A   Mostly Cloudy
5:15 AM 57.2 °F 57.2 °F 100% 30.01 in 5.0 mi South 4.6 mph - N/A   Clear
5:35 AM 59.0 °F 59.0 °F 100% 30.01 in 7.0 mi SSW 3.5 mph - N/A   Mostly Cloudy
5:55 AM 59.0 °F 59.0 °F 100% 30.02 in 10.0 mi Calm Calm - N/A Rain Light Rain
6:15 AM 59.0 °F 59.0 °F 100% 30.02 in 7.0 mi Calm Calm - N/A   Scattered Clouds
6:35 AM 59.0 °F 59.0 °F 100% 30.02 in 7.0 mi SSE 3.5 mph - N/A   Light Drizzle
6:55 AM 59.0 °F 59.0 °F 100% 30.02 in 7.0 mi Calm Calm - N/A   Scattered Clouds
7:15 AM 60.8 °F 59.0 °F 94% 30.01 in 10.0 mi SSE 4.6 mph - N/A   Scattered Clouds
7:35 AM 60.8 °F 59.0 °F 94% 30.03 in 10.0 mi Calm Calm - N/A   Mostly Cloudy
7:55 AM 60.8 °F 59.0 °F 94% 30.04 in 5.0 mi Calm Calm - N/A   Scattered Clouds
8:15 AM 60.8 °F 60.8 °F 100% 30.03 in 5.0 mi Calm Calm - N/A   Mostly Cloudy
8:35 AM 60.8 °F 60.8 °F 100% 30.03 in 10.0 mi Calm Calm - N/A   Mostly Cloudy
8:55 AM 62.6 °F 60.8 °F 94% 30.04 in 10.0 mi Calm Calm - N/A   Mostly Cloudy
9:15 AM 62.6 °F 60.8 °F 94% 30.06 in 10.0 mi Calm Calm - N/A   Scattered Clouds
9:35 AM 64.4 °F 60.8 °F 88% 30.05 in 10.0 mi Calm Calm - N/A   Clear
9:55 AM 64.4 °F 60.8 °F 88% 30.06 in 10.0 mi Calm Calm - N/A   Clear
10:15 AM 66.2 °F 60.8 °F 83% 30.07 in 10.0 mi Calm Calm - N/A   Scattered Clouds
10:35 AM 69.8 °F 62.6 °F 78% 30.07 in 10.0 mi South 3.5 mph - N/A   Scattered Clouds
10:55 AM 69.8 °F 62.6 °F 78% 30.06 in 10.0 mi South 5.8 mph - N/A   Clear
11:15 AM 69.8 °F 62.6 °F 78% 30.06 in 10.0 mi Calm Calm - N/A   Scattered Clouds
11:35 AM 71.6 °F 64.4 °F 78% 30.06 in 10.0 mi Calm Calm - N/A   Mostly Cloudy
11:55 AM 71.6 °F 62.6 °F 73% 30.06 in 10.0 mi South 11.5 mph - N/A   Scattered Clouds
12:15 PM 71.6 °F 62.6 °F 73% 30.05 in 10.0 mi South 10.4 mph - N/A   Overcast
12:35 PM 71.6 °F 62.6 °F 73% 30.04 in 10.0 mi SSW 4.6 mph - N/A   Mostly Cloudy
12:55 PM 73.4 °F 62.6 °F 69% 30.04 in 10.0 mi South 4.6 mph - N/A   Scattered Clouds
1:15 PM 75.2 °F 62.6 °F 65% 30.03 in 10.0 mi South 5.8 mph - N/A   Scattered Clouds
1:35 PM 75.2 °F 62.6 °F 65% 30.03 in 10.0 mi SSW 8.1 mph - N/A   Scattered Clouds
1:55 PM 75.2 °F 60.8 °F 61% 30.01 in 10.0 mi South 4.6 mph - N/A   Scattered Clouds
2:15 PM 75.2 °F 60.8 °F 61% 30.00 in 10.0 mi SSW 6.9 mph - N/A   Scattered Clouds
2:35 PM 77.0 °F 60.8 °F 57% 29.99 in 10.0 mi SSW 6.9 mph - N/A   Scattered Clouds
2:55 PM 78.8 °F 60.8 °F 54% 29.98 in 10.0 mi South 12.7 mph 17.3 mph N/A   Clear
3:15 PM 77.0 °F 60.8 °F 57% 29.97 in 10.0 mi SSW 4.6 mph - N/A   Scattered Clouds
3:35 PM 78.8 °F 60.8 °F 54% 29.96 in 10.0 mi South 9.2 mph - N/A   Scattered Clouds
3:55 PM 77.0 °F 60.8 °F 57% 29.95 in 10.0 mi SW 5.8 mph - N/A   Clear
4:15 PM 77.0 °F 60.8 °F 57% 29.95 in 10.0 mi SSW 8.1 mph - N/A   Clear
4:35 PM 78.8 °F 60.8 °F 54% 29.95 in 10.0 mi South 8.1 mph - N/A   Clear
5:15 PM 77.0 °F 60.8 °F 57% 29.94 in 10.0 mi SSW 6.9 mph - N/A   Scattered Clouds
5:35 PM 77.0 °F 60.8 °F 57% 29.94 in 10.0 mi SSW 4.6 mph - N/A   Clear
5:55 PM 77.0 °F 62.6 °F 61% 29.93 in 10.0 mi SSW 4.6 mph - N/A   Scattered Clouds
6:15 PM 77.0 °F 62.6 °F 61% 29.94 in 10.0 mi South 4.6 mph - N/A   Mostly Cloudy
6:35 PM 77.0 °F 62.6 °F 61% 29.93 in 10.0 mi SSW 8.1 mph - N/A   Scattered Clouds
6:55 PM 75.2 °F 62.6 °F 65% 29.95 in 10.0 mi Calm Calm - N/A   Scattered Clouds
7:15 PM 73.4 °F 62.6 °F 69% 29.94 in 10.0 mi SSW 3.5 mph - N/A   Scattered Clouds
7:35 PM 73.4 °F 62.6 °F 69% 29.95 in 10.0 mi WSW 3.5 mph - N/A   Clear
8:15 PM 71.6 °F 62.6 °F 73% 29.94 in 10.0 mi Calm Calm - N/A   Clear
8:35 PM 71.6 °F 62.6 °F 73% 29.93 in 10.0 mi Calm Calm - N/A   Clear
8:55 PM 69.8 °F 62.6 °F 78% 29.93 in 10.0 mi SSE 3.5 mph - N/A   Clear
9:15 PM 69.8 °F 64.4 °F 83% 29.93 in 10.0 mi SSW 4.6 mph - N/A   Clear
9:35 PM 69.8 °F 64.4 °F 83% 29.93 in 10.0 mi SSW 6.9 mph - N/A   Clear
9:55 PM 69.8 °F 64.4 °F 83% 29.93 in 10.0 mi South 6.9 mph - N/A   Clear
10:15 PM 69.8 °F 64.4 °F 83% 29.93 in 10.0 mi SSW 4.6 mph - N/A   Clear
10:35 PM 68.0 °F 64.4 °F 88% 29.93 in 10.0 mi South 4.6 mph - N/A   Clear
10:55 PM 68.0 °F 64.4 °F 88% 29.93 in 10.0 mi SSW 4.6 mph - N/A   Clear
11:15 PM 68.0 °F 62.6 °F 83% 29.93 in 10.0 mi SSW 5.8 mph - N/A   Clear
11:55 PM 68.0 °F 62.6 °F 83% 29.96 in 10.0 mi Calm Calm - N/A   Clear